Weather History for Scottsdale, AZ

Change the Weather History Date:

Sunday, February 3, 2013

  Actual Average Record
Temperature  
Mean Temperature 60 °F -  
Max Temperature 66 °F 64 °F 79 °F (2009)
Min Temperature 55 °F 44 °F 28 °F (2011)
Degree Days  
Heating Degree Days 4    
Growing Degree Days 10 (Base 50)    
Moisture  
Dew Point 43 °F    
Average Humidity 54    
Maximum Humidity 70    
Minimum Humidity 36    
Precipitation  
Precipitation 0.00 in - - ()
Sea Level Pressure  
Sea Level Pressure 29.99 in    
Wind  
Wind Speed 2 mph (West)    
Max Wind Speed 7 mph    
Max Gust Speed -    
Visibility 10 miles    
Events Rain    
Averages and records for this station are not official NWS values.
T = Trace of Precipitation, MM = Missing Value Source: NWS Daily Summary

Daily Weather History Graph

Daily Weather History Graph

Search for Another Location

Airport:

Trip Planner

Search our weather history database for the weather conditions in past years. The results will help you decide how hot, cold, wet, or windy it might be!

Date:

Astronomy

Feb. 03, 2013 Rise Set
Actual Time 7:22 AM MST 6:01 PM MST
Civil Twilight 6:56 AM MST 6:27 PM MST
Nautical Twilight 6:26 AM MST 6:56 PM MST
Astronomical Twilight 5:57 AM MST 7:26 PM MST
Moon 12:53 AM MST (2/3) 11:43 AM MST (2/3)
Length of Visible Light 11h 30m
Length of Day
10h 38m
Waning Gibbous, 48% of the Moon is Illuminated
Feb 3
Waning Gibbous
Feb 10
New
Feb 17
First Quarter
Feb 25
Full
Mar 4
Last Quarter

Hourly Weather History & Observations

Time (MST) Temp. Dew Point Humidity Pressure Visibility Wind Dir Wind Speed Gust Speed Precip Events Conditions
12:53 AM 57.9 °F 43.0 °F 58% 30.07 in 10.0 mi Calm Calm - N/A   Clear
2:53 AM 57.0 °F 44.1 °F 62% 30.04 in 10.0 mi NE 3.5 mph - N/A   Clear
3:53 AM 55.9 °F 44.1 °F 64% 30.02 in 10.0 mi Calm Calm - N/A   Clear
5:53 AM 55.9 °F 43.0 °F 62% 30.00 in 10.0 mi Calm Calm - N/A   Clear
6:53 AM 55.9 °F 43.0 °F 62% 30.01 in 10.0 mi Calm Calm - N/A   Partly Cloudy
7:53 AM 55.9 °F 43.0 °F 62% 30.04 in 10.0 mi Calm Calm - N/A   Scattered Clouds
8:53 AM 57.9 °F 42.1 °F 56% 30.04 in 10.0 mi Calm Calm - N/A   Overcast
9:53 AM 57.9 °F 41.0 °F 53% 30.05 in 10.0 mi WSW 6.9 mph - N/A   Overcast
10:53 AM 60.1 °F 41.0 °F 49% 30.05 in 10.0 mi SSW 3.5 mph - 0.00 in Rain Light Rain
11:53 AM 63.0 °F 41.0 °F 45% 30.01 in 10.0 mi SSW 3.5 mph - 0.00 in   Overcast
12:53 PM 64.0 °F 41.0 °F 43% 29.98 in 10.0 mi SSW 4.6 mph - N/A   Overcast
1:53 PM 64.9 °F 39.0 °F 39% 29.96 in 10.0 mi Calm Calm - 0.00 in   Overcast
2:53 PM 64.9 °F 41.0 °F 42% 29.95 in 10.0 mi Calm Calm - 0.00 in Rain Light Rain
3:53 PM 66.0 °F 37.9 °F 36% 29.94 in 10.0 mi NNW 3.5 mph - 0.00 in   Overcast
4:53 PM 66.0 °F 39.0 °F 37% 29.94 in 10.0 mi Calm Calm - N/A   Overcast
5:53 PM 63.0 °F 45.0 °F 52% 29.96 in 10.0 mi NE 3.5 mph - 0.00 in   Overcast
6:53 PM 63.0 °F 46.9 °F 56% 29.95 in 10.0 mi Calm Calm - N/A   Overcast
7:53 PM 63.0 °F 46.0 °F 54% 29.96 in 10.0 mi NNE 4.6 mph - N/A   Overcast
8:53 PM 62.1 °F 46.0 °F 56% 29.97 in 10.0 mi North 5.8 mph - N/A   Overcast
9:53 PM 60.1 °F 48.0 °F 64% 29.98 in 10.0 mi Calm Calm - N/A   Overcast
10:53 PM 59.0 °F 48.9 °F 69% 29.97 in 10.0 mi SSE 3.5 mph - N/A   Overcast
11:53 PM 57.9 °F 48.0 °F 70% 29.96 in 10.0 mi Calm Calm - N/A   Mostly Cloudy